| time (UTC) | temp C | wind direction | speed KPH | gust KPH | rain 1hr cm | rain 24hr cm | rain mn cm | humidity % | barometer mb |
| 20260510012541 | 29 | 120 | 6.4 | 6.4 | 0.00 | 0.00 | 0.00 | ||
| 20260510012041 | 30 | 117 | 4.8 | 6.4 | 0.00 | 0.00 | 0.00 | ||
| 20260510011541 | 30 | 118 | 8.0 | 12.9 | 0.00 | 0.00 | 0.00 | ||
| 20260510011039 | 30 | 113 | 9.7 | 11.3 | 0.00 | 0.00 | 0.00 | ||
| 20260510010539 | 30 | 115 | 8.0 | 8.0 | 0.00 | 0.00 | 0.00 | ||
| 20260510010039 | 30 | 115 | 9.7 | 9.7 | 0.00 | 0.00 | 0.00 | ||
| 20260510005537 | 30 | 103 | 6.4 | 8.0 | 0.00 | 0.00 | 0.00 | ||
| 20260510005037 | 30 | 101 | 11.3 | 9.7 | 0.00 | 0.00 | 0.00 | ||
| 20260510004646 | 31 | 142 | 12.9 | 12.9 | 0.00 | 0.00 | 0.00 | ||
| 20260510004537 | 31 | 142 | 12.9 | 12.9 | 0.00 | 0.00 | 0.00 | ||
| 20260510004035 | 31 | 158 | 11.3 | 11.3 | 0.00 | 0.00 | 0.00 | ||
| 20260510003535 | 31 | 138 | 9.7 | 8.0 | 0.00 | 0.00 | 0.00 | ||
| 20260510003036 | 31 | 128 | 12.9 | 11.3 | 0.00 | 0.00 | 0.00 | ||
| 20260510002533 | 31 | 152 | 12.9 | 9.7 | 0.00 | 0.00 | 0.00 | ||
| 20260510002033 | 31 | 121 | 12.9 | 14.5 | 0.00 | 0.00 | 0.00 | ||
| 20260510001534 | 31 | 111 | 12.9 | 12.9 | 0.00 | 0.00 | 0.00 | ||
| 20260510001031 | 32 | 139 | 12.9 | 14.5 | 0.00 | 0.00 | 0.00 | ||
| 20260510000532 | 32 | 118 | 11.3 | 9.7 | 0.00 | 0.00 | 0.00 | ||
| 20260510000032 | 32 | 139 | 12.9 | 11.3 | 0.00 | 0.00 | 0.00 | ||
| 20260509235529 | 32 | 145 | 12.9 | 9.7 | 0.00 | 0.00 | 0.00 | ||
| 20260509234530 | 32 | 125 | 17.7 | 11.3 | 0.00 | 0.00 | 0.00 | ||
| 20260509234027 | 32 | 129 | 11.3 | 11.3 | 0.00 | 0.00 | 0.00 | ||
| 20260509233527 | 31 | 91 | 16.1 | 16.1 | 0.00 | 0.00 | 0.00 | ||
| 20260509233027 | 32 | 122 | 12.9 | 9.7 | 0.00 | 0.00 | 0.00 | ||
| 20260509232524 | 32 | 97 | 14.5 | 19.3 | 0.00 | 0.00 | 0.00 | ||
| 20260509232025 | 33 | 93 | 12.9 | 17.7 | 0.00 | 0.00 | 0.00 | ||
| 20260509231525 | 32 | 167 | 8.0 | 12.9 | 0.00 | 0.00 | 0.00 | ||
| 20260509230522 | 33 | 173 | 9.7 | 9.7 | 0.00 | 0.00 | 0.00 | ||
| 20260509230022 | 33 | 166 | 8.0 | 8.0 | 0.00 | 0.00 | 0.00 | ||
| 20260509225520 | 32 | 184 | 9.7 | 8.0 | 0.00 | 0.00 | 0.00 | ||
| 20260509225020 | 32 | 145 | 12.9 | 9.7 | 0.00 | 0.00 | 0.00 | ||
| 20260509224520 | 32 | 98 | 9.7 | 11.3 | 0.00 | 0.00 | 0.00 | ||
| 20260509224018 | 32 | 80 | 11.3 | 9.7 | 0.00 | 0.00 | 0.00 | ||
| 20260509223518 | 32 | 98 | 14.5 | 11.3 | 0.00 | 0.00 | 0.00 | ||
| 20260509223018 | 32 | 117 | 12.9 | 17.7 | 0.00 | 0.00 | 0.00 | ||
| 20260509222516 | 34 | 150 | 16.1 | 12.9 | 0.00 | 0.00 | 0.00 | ||
| 20260509222016 | 33 | 187 | 11.3 | 11.3 | 0.00 | 0.00 | 0.00 | ||
| 20260509221516 | 33 | 145 | 14.5 | 12.9 | 0.00 | 0.00 | 0.00 | ||
| 20260509221014 | 33 | 118 | 11.3 | 17.7 | 0.00 | 0.00 | 0.00 | ||
| 20260509220514 | 33 | 165 | 12.9 | 11.3 | 0.00 | 0.00 | 0.00 | ||
| 20260509220014 | 33 | 197 | 16.1 | 9.7 | 0.00 | 0.00 | 0.00 | ||
| 20260509215511 | 33 | 194 | 11.3 | 11.3 | 0.00 | 0.00 | 0.00 | ||
| 20260509215012 | 33 | 190 | 11.3 | 11.3 | 0.00 | 0.00 | 0.00 | ||
| 20260509214512 | 33 | 172 | 16.1 | 9.7 | 0.00 | 0.00 | 0.00 | ||
| 20260509214010 | 33 | 156 | 12.9 | 9.7 | 0.00 | 0.00 | 0.00 | ||
| 20260509213510 | 33 | 159 | 9.7 | 4.8 | 0.00 | 0.00 | 0.00 | ||
| 20260509213010 | 34 | 160 | 11.3 | 16.1 | 0.00 | 0.00 | 0.00 | ||
| 20260509212508 | 33 | 125 | 8.0 | 14.5 | 0.00 | 0.00 | 0.00 | ||
| 20260509212008 | 33 | 217 | 14.5 | 16.1 | 0.00 | 0.00 | 0.00 | ||
| 20260509211508 | 33 | 181 | 8.0 | 3.2 | 0.00 | 0.00 | 0.00 | ||
| 20260509211006 | 33 | 226 | 11.3 | 3.2 | 0.00 | 0.00 | 0.00 | ||
| 20260509210506 | 33 | 181 | 12.9 | 6.4 | 0.00 | 0.00 | 0.00 | ||
| 20260509210006 | 33 | 177 | 14.5 | 14.5 | 0.00 | 0.00 | 0.00 | ||
| 20260509205504 | 33 | 177 | 16.1 | 12.9 | 0.00 | 0.00 | 0.00 | ||
| 20260509205004 | 33 | 155 | 12.9 | 14.5 | 0.00 | 0.00 | 0.00 | ||
| 20260509204504 | 33 | 136 | 12.9 | 9.7 | 0.00 | 0.00 | 0.00 | ||
| 20260509204001 | 32 | 146 | 14.5 | 17.7 | 0.00 | 0.00 | 0.00 | ||
| 20260509203502 | 33 | 172 | 16.1 | 12.9 | 0.00 | 0.00 | 0.00 | ||
| 20260509203002 | 33 | 152 | 14.5 | 12.9 | 0.00 | 0.00 | 0.00 | ||
| 20260509202459 | 32 | 153 | 12.9 | 16.1 | 0.00 | 0.00 | 0.00 | ||
| 20260509201959 | 33 | 204 | 12.9 | 12.9 | 0.00 | 0.00 | 0.00 | ||
| 20260509201500 | 33 | 153 | 9.7 | 6.4 | 0.00 | 0.00 | 0.00 | ||
| 20260509200957 | 32 | 136 | 11.3 | 11.3 | 0.00 | 0.00 | 0.00 | ||
| 20260509200458 | 32 | 122 | 12.9 | 14.5 | 0.00 | 0.00 | 0.00 | ||
| 20260509195958 | 32 | 176 | 16.1 | 14.5 | 0.00 | 0.00 | 0.00 | ||
| 20260509195455 | 32 | 132 | 14.5 | 12.9 | 0.00 | 0.00 | 0.00 | ||
| 20260509194956 | 32 | 121 | 14.5 | 12.9 | 0.00 | 0.00 | 0.00 | ||
| 20260509194456 | 32 | 188 | 11.3 | 12.9 | 0.00 | 0.00 | 0.00 | ||
| 20260509193953 | 32 | 166 | 16.1 | 27.4 | 0.00 | 0.00 | 0.00 | ||
| 20260509193454 | 32 | 176 | 9.7 | 20.9 | 0.00 | 0.00 | 0.00 | ||
| 20260509192953 | 32 | 163 | 17.7 | 16.1 | 0.00 | 0.00 | 0.00 | ||
| 20260509192450 | 32 | 158 | 16.1 | 16.1 | 0.00 | 0.00 | 0.00 | ||
| 20260509191951 | 31 | 135 | 14.5 | 14.5 | 0.00 | 0.00 | 0.00 | ||
| 20260509191451 | 32 | 201 | 17.7 | 16.1 | 0.00 | 0.00 | 0.00 | ||
| 20260509190948 | 31 | 160 | 12.9 | 17.7 | 0.00 | 0.00 | 0.00 | ||
| 20260509190449 | 31 | 132 | 14.5 | 16.1 | 0.00 | 0.00 | 0.00 | ||
| 20260509185949 | 31 | 153 | 14.5 | 19.3 | 0.00 | 0.00 | 0.00 | ||
| 20260509185446 | 31 | 156 | 14.5 | 16.1 | 0.00 | 0.00 | 0.00 | ||
| 20260509184947 | 31 | 127 | 12.9 | 17.7 | 0.00 | 0.00 | 0.00 | ||
| 20260509184447 | 31 | 107 | 16.1 | 16.1 | 0.00 | 0.00 | 0.00 | ||
| 20260509183944 | 31 | 212 | 14.5 | 12.9 | 0.00 | 0.00 | 0.00 | ||
| 20260509183445 | 31 | 149 | 11.3 | 17.7 | 0.00 | 0.00 | 0.00 | ||
| 20260509182945 | 31 | 167 | 14.5 | 17.7 | 0.00 | 0.00 | 0.00 | ||
| 20260509182442 | 31 | 173 | 16.1 | 16.1 | 0.00 | 0.00 | 0.00 | ||
| 20260509181943 | 31 | 156 | 14.5 | 19.3 | 0.00 | 0.00 | 0.00 | ||
| 20260509181443 | 31 | 141 | 14.5 | 17.7 | 0.00 | 0.00 | 0.00 | ||
| 20260509180940 | 31 | 194 | 12.9 | 11.3 | 0.00 | 0.00 | 0.00 | ||
| 20260509180441 | 30 | 205 | 14.5 | 14.5 | 0.00 | 0.00 | 0.00 | ||
| 20260509175941 | 31 | 118 | 16.1 | 14.5 | 0.00 | 0.00 | 0.00 | ||
| 20260509175438 | 31 | 108 | 12.9 | 14.5 | 0.00 | 0.00 | 0.00 | ||
| 20260509174939 | 30 | 87 | 12.9 | 3.2 | 0.00 | 0.00 | 0.00 | ||
| 20260509174439 | 30 | 145 | 12.9 | 11.3 | 0.00 | 0.00 | 0.00 | ||
| 20260509173936 | 30 | 177 | 9.7 | 9.7 | 0.00 | 0.00 | 0.00 | ||
| 20260509173437 | 30 | 153 | 6.4 | 6.4 | 0.00 | 0.00 | 0.00 | ||
| 20260509172937 | 28 | 146 | 8.0 | 11.3 | 0.00 | 0.00 | 0.00 | ||
| 20260509172434 | 29 | 132 | 6.4 | 9.7 | 0.00 | 0.00 | 0.00 | ||
| 20260509172104 | 29 | 194 | 8.0 | 3.2 | 0.00 | 0.00 | 0.00 | ||
| 20260509171935 | 29 | 194 | 8.0 | 3.2 | 0.00 | 0.00 | 0.00 | ||
| 20260509171435 | 29 | 163 | 12.9 | 11.3 | 0.00 | 0.00 | 0.00 | ||
| 20260509170933 | 28 | 132 | 6.4 | 11.3 | 0.00 | 0.00 | 0.00 | ||
| 20260509170433 | 28 | 194 | 8.0 | 4.8 | 0.00 | 0.00 | 0.00 | ||
| 20260509165933 | 28 | 239 | 9.7 | 8.0 | 0.00 | 0.00 | 0.00 | ||
| 20260509165431 | 27 | 136 | 9.7 | 9.7 | 0.00 | 0.00 | 0.00 | ||
| 20260509164931 | 27 | 162 | 11.3 | 6.4 | 0.00 | 0.00 | 0.00 | ||
| 20260509164432 | 27 | 176 | 8.0 | 11.3 | 0.00 | 0.00 | 0.00 | ||
| 20260509163929 | 27 | 191 | 9.7 | 9.7 | 0.00 | 0.00 | 0.00 | ||
| 20260509163430 | 26 | 229 | 8.0 | 9.7 | 0.00 | 0.00 | 0.00 | ||
| 20260509162929 | 27 | 128 | 6.4 | 14.5 | 0.00 | 0.00 | 0.00 | ||
| 20260509162426 | 26 | 190 | 6.4 | 11.3 | 0.00 | 0.00 | 0.00 | ||
| 20260509161927 | 26 | 240 | 9.7 | 8.0 | 0.00 | 0.00 | 0.00 | ||
| 20260509161427 | 26 | 135 | 9.7 | 16.1 | 0.00 | 0.00 | 0.00 | ||
| 20260509160925 | 26 | 174 | 9.7 | 8.0 | 0.00 | 0.00 | 0.00 | ||
| 20260509160425 | 25 | 153 | 9.7 | 12.9 | 0.00 | 0.00 | 0.00 | ||
| 20260509155926 | 25 | 183 | 12.9 | 12.9 | 0.00 | 0.00 | 0.00 | ||
| 20260509155424 | 24 | 148 | 9.7 | 14.5 | 0.00 | 0.00 | 0.00 | ||
| 20260509154924 | 23 | 115 | 11.3 | 8.0 | 0.00 | 0.00 | 0.00 | ||
| 20260509154424 | 23 | 143 | 14.5 | 14.5 | 0.00 | 0.00 | 0.00 | ||
| 20260509153922 | 23 | 121 | 11.3 | 8.0 | 0.00 | 0.00 | 0.00 | ||
| 20260509153422 | 24 | 107 | 14.5 | 12.9 | 0.00 | 0.00 | 0.00 | ||
| 20260509152923 | 23 | 131 | 12.9 | 9.7 | 0.00 | 0.00 | 0.00 | ||
| 20260509152544 | 23 | 125 | 12.9 | 12.9 | 0.00 | 0.00 | 0.00 | ||
| 20260509152420 | 23 | 125 | 12.9 | 12.9 | 0.00 | 0.00 | 0.00 | ||
| 20260509151921 | 23 | 143 | 4.8 | 11.3 | 0.00 | 0.00 | 0.00 | ||
| 20260509151421 | 23 | 107 | 9.7 | 12.9 | 0.00 | 0.00 | 0.00 | ||
| 20260509150919 | 23 | 96 | 9.7 | 16.1 | 0.00 | 0.00 | 0.00 | ||
| 20260509150418 | 23 | 163 | 9.7 | 6.4 | 0.00 | 0.00 | 0.00 | ||
| 20260509145919 | 22 | 135 | 9.7 | 4.8 | 0.00 | 0.00 | 0.00 | ||
| 20260509145416 | 23 | 122 | 6.4 | 8.0 | 0.00 | 0.00 | 0.00 | ||
| 20260509144916 | 22 | 177 | 8.0 | 4.8 | 0.00 | 0.00 | 0.00 | ||
| 20260509144417 | 21 | 210 | 1.6 | 3.2 | 0.00 | 0.00 | 0.00 | ||
| 20260509143915 | 21 | 359 | 1.6 | 1.6 | 0.00 | 0.00 | 0.00 | ||
| 20260509143000 | 19 | 277 | 8.0 | 4.8 | 0.00 | 0.00 | 0.00 | ||
| 20260509142916 | 19 | 277 | 8.0 | 4.8 | 0.00 | 0.00 | 0.00 | ||
| 20260509142413 | 18 | 294 | 9.7 | 11.3 | 0.00 | 0.00 | 0.00 | ||
| 20260509141914 | 18 | 305 | 6.4 | 4.8 | 0.00 | 0.00 | 0.00 | ||
| 20260509141414 | 18 | 326 | 8.0 | 6.4 | 0.00 | 0.00 | 0.00 | ||
| 20260509140912 | 18 | 298 | 8.0 | 6.4 | 0.00 | 0.00 | 0.00 | ||
| 20260509140412 | 18 | 304 | 8.0 | 9.7 | 0.00 | 0.00 | 0.00 | ||
| 20260509135912 | 18 | 297 | 9.7 | 9.7 | 0.00 | 0.00 | 0.00 | ||
| 20260509135410 | 18 | 340 | 6.4 | 8.0 | 0.00 | 0.00 | 0.00 | ||
| 20260509134910 | 17 | 314 | 8.0 | 6.4 | 0.00 | 0.00 | 0.00 | ||
| 20260509134411 | 17 | 321 | 4.8 | 8.0 | 0.00 | 0.00 | 0.00 | ||
| 20260509133908 | 17 | 318 | 6.4 | 4.8 | 0.00 | 0.00 | 0.00 | ||
| 20260509133409 | 17 | 312 | 4.8 | 4.8 | 0.00 | 0.00 | 0.00 | ||
| 20260509132909 | 17 | 322 | 8.0 | 6.4 | 0.00 | 0.00 | 0.00 | ||
| 20260509132407 | 17 | 336 | 8.0 | 6.4 | 0.00 | 0.00 | 0.00 | ||
| 20260509131907 | 17 | 340 | 4.8 | 6.4 | 0.00 | 0.00 | 0.00 | ||
| 20260509131408 | 17 | 325 | 1.6 | 1.6 | 0.00 | 0.00 | 0.00 | ||
| 20260509130906 | 17 | 322 | 0.0 | 0.0 | 0.00 | 0.00 | 0.00 | ||
| 20260509130406 | 17 | 322 | 0.0 | 0.0 | 0.00 | 0.00 | 0.00 | ||
| 20260509125907 | 17 | 322 | 0.0 | 0.0 | 0.00 | 0.00 | 0.00 | ||
| 20260509125404 | 16 | 316 | 3.2 | 1.6 | 0.00 | 0.00 | 0.00 | ||
| 20260509124905 | 16 | 311 | 8.0 | 8.0 | 0.00 | 0.00 | 0.00 | ||
| 20260509124405 | 16 | 323 | 4.8 | 6.4 | 0.00 | 0.00 | 0.00 | ||
| 20260509123903 | 16 | 302 | 3.2 | 3.2 | 0.00 | 0.00 | 0.00 | ||
| 20260509123403 | 16 | 312 | 6.4 | 6.4 | 0.00 | 0.00 | 0.00 | ||
| 20260509122904 | 16 | 333 | 1.6 | 6.4 | 0.00 | 0.00 | 0.00 | ||
| 20260509122400 | 16 | 276 | 0.0 | 0.0 | 0.00 | 0.00 | 0.00 | ||
| 20260509121901 | 16 | 290 | 4.8 | 4.8 | 0.00 | 0.00 | 0.00 | ||
| 20260509121401 | 16 | 328 | 8.0 | 8.0 | 0.00 | 0.00 | 0.00 | ||
| 20260509120859 | 16 | 132 | 0.0 | 0.0 | 0.00 | 0.00 | 0.00 | ||
| 20260509120359 | 16 | 132 | 0.0 | 0.0 | 0.00 | 0.00 | 0.00 | ||
| 20260509115900 | 16 | 316 | 0.0 | 0.0 | 0.00 | 0.00 | 0.00 | ||
| 20260509115357 | 16 | 326 | 3.2 | 1.6 | 0.00 | 0.00 | 0.00 | ||
| 20260509114858 | 16 | 322 | 3.2 | 4.8 | 0.00 | 0.00 | 0.00 | ||
| 20260509114358 | 16 | 240 | 4.8 | 3.2 | 0.00 | 0.00 | 0.00 | ||
| 20260509113856 | 16 | 188 | 6.4 | 4.8 | 0.00 | 0.00 | 0.00 | ||
| 20260509113356 | 16 | 166 | 9.7 | 6.4 | 0.00 | 0.00 | 0.00 | ||
| 20260509112355 | 16 | 190 | 9.7 | 9.7 | 0.00 | 0.00 | 0.00 | ||
| 20260509111854 | 16 | 165 | 9.7 | 8.0 | 0.00 | 0.00 | 0.00 | ||
| 20260509111355 | 15 | 232 | 4.8 | 4.8 | 0.00 | 0.00 | 0.00 | ||
| 20260509110851 | 15 | 229 | 4.8 | 4.8 | 0.00 | 0.00 | 0.00 | ||
| 20260509110351 | 16 | 169 | 6.4 | 8.0 | 0.00 | 0.00 | 0.00 | ||
| 20260509105851 | 16 | 165 | 4.8 | 4.8 | 0.00 | 0.00 | 0.00 | ||
| 20260509105349 | 16 | 172 | 4.8 | 3.2 | 0.00 | 0.00 | 0.00 | ||
| 20260509104849 | 15 | 153 | 8.0 | 9.7 | 0.00 | 0.00 | 0.00 | ||
| 20260509104350 | 15 | 146 | 0.0 | 0.0 | 0.00 | 0.00 | 0.00 | ||
| 20260509103847 | 15 | 146 | 0.0 | 0.0 | 0.00 | 0.00 | 0.00 | ||
| 20260509103348 | 15 | 146 | 0.0 | 0.0 | 0.00 | 0.00 | 0.00 | ||
| 20260509102848 | 15 | 146 | 0.0 | 0.0 | 0.00 | 0.00 | 0.00 | ||
| 20260509102345 | 15 | 146 | 0.0 | 0.0 | 0.00 | 0.00 | 0.00 | ||
| 20260509101846 | 15 | 146 | 0.0 | 0.0 | 0.00 | 0.00 | 0.00 | ||
| 20260509101346 | 15 | 146 | 1.6 | 0.0 | 0.00 | 0.00 | 0.00 | ||
| 20260509100844 | 15 | 219 | 3.2 | 3.2 | 0.00 | 0.00 | 0.00 | ||
| 20260509100344 | 15 | 228 | 0.0 | 0.0 | 0.00 | 0.00 | 0.00 | ||
| 20260509095844 | 15 | 228 | 1.6 | 0.0 | 0.00 | 0.00 | 0.00 | ||
| 20260509095342 | 16 | 152 | 0.0 | 3.2 | 0.00 | 0.00 | 0.00 | ||
| 20260509094842 | 15 | 342 | 6.4 | 6.4 | 0.00 | 0.00 | 0.00 | ||
| 20260509094342 | 16 | 20 | 6.4 | 4.8 | 0.00 | 0.00 | 0.00 | ||
| 20260509093840 | 16 | 339 | 9.7 | 8.0 | 0.00 | 0.00 | 0.00 | ||
| 20260509093340 | 16 | 98 | 0.0 | 0.0 | 0.00 | 0.00 | 0.00 | ||
| 20260509092840 | 16 | 98 | 0.0 | 0.0 | 0.00 | 0.00 | 0.00 | ||
| 20260509092337 | 16 | 129 | 6.4 | 4.8 | 0.00 | 0.00 | 0.00 | ||
| 20260509091838 | 16 | 72 | 0.0 | 0.0 | 0.00 | 0.00 | 0.00 | ||
| 20260509091339 | 16 | 72 | 0.0 | 0.0 | 0.00 | 0.00 | 0.00 | ||
| 20260509090836 | 16 | 72 | 0.0 | 0.0 | 0.00 | 0.00 | 0.00 | ||
| 20260509090336 | 16 | 72 | 0.0 | 0.0 | 0.00 | 0.00 | 0.00 | ||
| 20260509085836 | 17 | 107 | 1.6 | 3.2 | 0.00 | 0.00 | 0.00 | ||
| 20260509085334 | 16 | 127 | 6.4 | 4.8 | 0.00 | 0.00 | 0.00 | ||
| 20260509084834 | 17 | 145 | 4.8 | 4.8 | 0.00 | 0.00 | 0.00 | ||
| 20260509084334 | 17 | 180 | 4.8 | 4.8 | 0.00 | 0.00 | 0.00 | ||
| 20260509083832 | 17 | 232 | 1.6 | 1.6 | 0.00 | 0.00 | 0.00 | ||
| 20260509083332 | 17 | 229 | 6.4 | 4.8 | 0.00 | 0.00 | 0.00 | ||
| 20260509082833 | 16 | 200 | 6.4 | 6.4 | 0.00 | 0.00 | 0.00 | ||
| 20260509082330 | 16 | 235 | 0.0 | 0.0 | 0.00 | 0.00 | 0.00 | ||
| 20260509081831 | 16 | 188 | 3.2 | 1.6 | 0.00 | 0.00 | 0.00 | ||
| 20260509081331 | 16 | 217 | 3.2 | 3.2 | 0.00 | 0.00 | 0.00 | ||
| 20260509080829 | 16 | 232 | 1.6 | 3.2 | 0.00 | 0.00 | 0.00 | ||
| 20260509080411 | 16 | 318 | 0.0 | 0.0 | 0.00 | 0.00 | 0.00 | ||
| 20260509080329 | 16 | 318 | 0.0 | 0.0 | 0.00 | 0.00 | 0.00 | ||
| 20260509075829 | 16 | 318 | 0.0 | 0.0 | 0.00 | 0.00 | 0.00 | ||
| 20260509075327 | 16 | 325 | 1.6 | 0.0 | 0.00 | 0.00 | 0.00 | ||
| 20260509074827 | 16 | 340 | 6.4 | 6.4 | 0.00 | 0.00 | 0.00 | ||
| 20260509074328 | 17 | 333 | 0.0 | 0.0 | 0.00 | 0.00 | 0.00 | ||
| 20260509073825 | 17 | 333 | 0.0 | 0.0 | 0.00 | 0.00 | 0.00 | ||
| 20260509073326 | 17 | 330 | 8.0 | 3.2 | 0.00 | 0.00 | 0.00 | ||
| 20260509072826 | 17 | 302 | 11.3 | 11.3 | 0.00 | 0.00 | 0.00 | ||
| 20260509072323 | 17 | 266 | 0.0 | 0.0 | 0.00 | 0.00 | 0.00 | ||
| 20260509071824 | 17 | 266 | 3.2 | 0.0 | 0.00 | 0.00 | 0.00 | ||
| 20260509071324 | 17 | 312 | 9.7 | 11.3 | 0.00 | 0.00 | 0.00 | ||
| 20260509070821 | 17 | 281 | 4.8 | 4.8 | 0.00 | 0.00 | 0.00 | ||
| 20260509065822 | 17 | 160 | 8.0 | 8.0 | 0.00 | 0.00 | 0.00 | ||
| 20260509065319 | 18 | 176 | 6.4 | 6.4 | 0.00 | 0.00 | 0.00 | ||
| 20260509064820 | 18 | 174 | 6.4 | 8.0 | 0.00 | 0.00 | 0.00 | ||
| 20260509064320 | 18 | 158 | 8.0 | 6.4 | 0.00 | 0.00 | 0.00 | ||
| 20260509063818 | 18 | 174 | 8.0 | 8.0 | 0.00 | 0.00 | 0.00 | ||
| 20260509063430 | 18 | 165 | 8.0 | 11.3 | 0.00 | 0.00 | 0.00 | ||
| 20260509063318 | 18 | 165 | 8.0 | 11.3 | 0.00 | 0.00 | 0.00 | ||
| 20260509062819 | 18 | 165 | 6.4 | 6.4 | 0.00 | 0.00 | 0.00 | ||
| 20260509062316 | 18 | 170 | 8.0 | 9.7 | 0.00 | 0.00 | 0.00 | ||
| 20260509061816 | 18 | 180 | 9.7 | 11.3 | 0.00 | 0.00 | 0.00 | ||
| 20260509061317 | 18 | 163 | 11.3 | 9.7 | 0.00 | 0.00 | 0.00 | ||
| 20260509060856 | 18 | 169 | 8.0 | 9.7 | 0.00 | 0.00 | 0.00 | ||
| 20260509060814 | 18 | 169 | 8.0 | 9.7 | 0.00 | 0.00 | 0.00 | ||
| 20260509060739 | 18 | 153 | 0.0 | 0.0 | 0.00 | 0.00 | 0.00 | ||
| 20260509060315 | 18 | 156 | 4.8 | 4.8 | 0.00 | 0.00 | 0.00 | ||
| 20260509055815 | 18 | 153 | 0.0 | 0.0 | 0.00 | 0.00 | 0.00 | ||
| 20260509055313 | 18 | 153 | 0.0 | 0.0 | 0.00 | 0.00 | 0.00 | ||
| 20260509054812 | 18 | 153 | 0.0 | 0.0 | 0.00 | 0.00 | 0.00 | ||
| 20260509054312 | 18 | 153 | 0.0 | 0.0 | 0.00 | 0.00 | 0.00 | ||
| 20260509053810 | 18 | 153 | 0.0 | 0.0 | 0.00 | 0.00 | 0.00 | ||
| 20260509053310 | 19 | 153 | 0.0 | 0.0 | 0.00 | 0.00 | 0.00 | ||
| 20260509052811 | 19 | 153 | 0.0 | 0.0 | 0.00 | 0.00 | 0.00 | ||
| 20260509052308 | 19 | 153 | 0.0 | 0.0 | 0.00 | 0.00 | 0.00 | ||
| 20260509051809 | 19 | 139 | 1.6 | 0.0 | 0.00 | 0.00 | 0.00 | ||
| 20260509051309 | 19 | 134 | 4.8 | 3.2 | 0.00 | 0.00 | 0.00 | ||
| 20260509050807 | 19 | 139 | 4.8 | 4.8 | 0.00 | 0.00 | 0.00 | ||
| 20260509050307 | 19 | 128 | 3.2 | 4.8 | 0.00 | 0.00 | 0.00 | ||
| 20260509045807 | 19 | 152 | 3.2 | 3.2 | 0.00 | 0.00 | 0.00 | ||
| 20260509045306 | 19 | 149 | 3.2 | 4.8 | 0.00 | 0.00 | 0.00 | ||
| 20260509044805 | 19 | 149 | 3.2 | 3.2 | 0.00 | 0.00 | 0.00 | ||
| 20260509044306 | 19 | 222 | 0.0 | 0.0 | 0.00 | 0.00 | 0.00 | ||
| 20260509043803 | 19 | 222 | 0.0 | 0.0 | 0.00 | 0.00 | 0.00 | ||
| 20260509043304 | 19 | 222 | 0.0 | 0.0 | 0.00 | 0.00 | 0.00 | ||
| 20260509042804 | 19 | 222 | 0.0 | 0.0 | 0.00 | 0.00 | 0.00 | ||
| 20260509042306 | 19 | 222 | 0.0 | 0.0 | 0.00 | 0.00 | 0.00 | ||
| 20260509041802 | 19 | 222 | 0.0 | 0.0 | 0.00 | 0.00 | 0.00 | ||
| 20260509041302 | 19 | 222 | 0.0 | 0.0 | 0.00 | 0.00 | 0.00 | ||
| 20260509040759 | 20 | 222 | 0.0 | 0.0 | 0.00 | 0.00 | 0.00 | ||
| 20260509040259 | 20 | 222 | 0.0 | 0.0 | 0.00 | 0.00 | 0.00 | ||
| 20260509035800 | 20 | 222 | 0.0 | 0.0 | 0.00 | 0.00 | 0.00 | ||
| 20260509035257 | 20 | 222 | 0.0 | 0.0 | 0.00 | 0.00 | 0.00 | ||
| 20260509034758 | 20 | 222 | 0.0 | 0.0 | 0.00 | 0.00 | 0.00 | ||
| 20260509034258 | 20 | 222 | 0.0 | 0.0 | 0.00 | 0.00 | 0.00 | ||
| 20260509033756 | 21 | 222 | 0.0 | 0.0 | 0.00 | 0.00 | 0.00 | ||
| 20260509033256 | 21 | 222 | 0.0 | 0.0 | 0.00 | 0.00 | 0.00 | ||
| 20260509032757 | 21 | 221 | 0.0 | 0.0 | 0.00 | 0.00 | 0.00 | ||
| 20260509032254 | 21 | 232 | 3.2 | 3.2 | 0.00 | 0.00 | 0.00 | ||
| 20260509031755 | 21 | 226 | 6.4 | 4.8 | 0.00 | 0.00 | 0.00 | ||
| 20260509031255 | 21 | 207 | 4.8 | 4.8 | 0.00 | 0.00 | 0.00 | ||
| 20260509030753 | 21 | 211 | 6.4 | 6.4 | 0.00 | 0.00 | 0.00 | ||
| 20260509030253 | 21 | 228 | 8.0 | 6.4 | 0.00 | 0.00 | 0.00 | ||
| 20260509025754 | 21 | 222 | 6.4 | 4.8 | 0.00 | 0.00 | 0.00 | ||
| 20260509025251 | 21 | 225 | 3.2 | 3.2 | 0.00 | 0.00 | 0.00 | ||
| 20260509024752 | 21 | 200 | 3.2 | 4.8 | 0.00 | 0.00 | 0.00 | ||
| 20260509024252 | 21 | 198 | 4.8 | 4.8 | 0.00 | 0.00 | 0.00 | ||
| 20260509023750 | 21 | 255 | 0.0 | 0.0 | 0.00 | 0.00 | 0.00 | ||
| 20260509023250 | 21 | 255 | 0.0 | 0.0 | 0.00 | 0.00 | 0.00 | ||
| 20260509022751 | 22 | 221 | 0.0 | 0.0 | 0.00 | 0.00 | 0.00 | ||
| 20260509022248 | 21 | 242 | 3.2 | 1.6 | 0.00 | 0.00 | 0.00 | ||
| 20260509021749 | 21 | 210 | 4.8 | 6.4 | 0.00 | 0.00 | 0.00 | ||
| 20260509021249 | 21 | 225 | 3.2 | 3.2 | 0.00 | 0.00 | 0.00 | ||
| 20260509020747 | 22 | 228 | 1.6 | 1.6 | 0.00 | 0.00 | 0.00 | ||
| 20260509020247 | 22 | 242 | 0.0 | 0.0 | 0.00 | 0.00 | 0.00 | ||
| 20260509015747 | 22 | 250 | 1.6 | 1.6 | 0.00 | 0.00 | 0.00 | ||
| 20260509015245 | 22 | 210 | 3.2 | 3.2 | 0.00 | 0.00 | 0.00 | ||
| 20260509014745 | 22 | 222 | 3.2 | 1.6 | 0.00 | 0.00 | 0.00 | ||
| 20260509014246 | 23 | 226 | 1.6 | 3.2 | 0.00 | 0.00 | 0.00 | ||
| 20260509013743 | 23 | 229 | 1.6 | 1.6 | 0.00 | 0.00 | 0.00 | ||
| 20260509013244 | 23 | 238 | 0.0 | 1.6 | 0.00 | 0.00 | 0.00 |